Location: Allen Lane School
(37.8198°N, 89.7382°W)
Time: 13:55:44
(UTC+00:00)

Cosmos 44 - Pass Details

Date: 07 July 2022
Orbit: 595 x 766 km, 65.1° (Epoch: 07 August)

Event Time Altitude Azimuth Distance (km) Brightness Sun altitude
Exits shadow 06:50:28 16° 298° (WNW) 1,639 5.3 -28.6°
Maximum altitude 06:51:21 17° 313° (NW) 1,591 5.4 -28.6°
Drops below altitude 10° 06:54:20 10° 355° (N) 1,991 6.5 -28.5°
Sets 06:57:16 0° 15° (NNE) 2,876 7.7 -28.3°
